Weather in Bagryash

Russia / Samara Oblast     54°12′13″N   51°41′36″E
temp.,
°C
wind,
m/s
gust,
m/s
humid.,
%
clouds,
%
prec.,
mm/h
press.,
hPa
HPBL,
m
4 march, thu
thu401:00−8wnw3796100 0.1 1005157
04:00−10w369799 0.1 1006105
07:00−12sw499884 0.0 1004170
10:00−8sw6119592 0.3 1003361
13:00−4sw81294100 0.3 1001655
16:00−2sw91596100 1.1 999997
19:00−1sw91597100 2.3 996929
22:000wsw91593100 3.0 9971029
5 march, fri
fri501:00−1w51092100 0.6 998659
04:00−3w41090100 0.8 1000459
07:00−5wnw2497100 0.5 1000158
10:00−4nnw2396100 1.8 1001252
13:00−4nnw3591100 0.9 1003455
16:00−5nnw3588100 0.9 1005517
19:00−11nw339256 0.0 100821
22:00−15wnw128928 0.0 101120
6 march, sat
sat601:00−16wsw12900 0.0 101220
04:00−16sw23940 0.0 101320
07:00−16ssw33963 0.0 101326
10:00−11sw469547 0.1 1013259
13:00−8wsw4694100 0.1 1013431
16:00−8w4691100 0.1 1013651
19:00−13nnw3495100 0.1 101378
22:00−17nnw2396100 0.1 101420
7 march, sun
sun701:00−20nw2210073 0.0 101320
04:00−21nnw2210078 0.0 101320
07:00−22wnw1210084 0.0 101420
10:00−18w129579 0.0 1014133
13:00−14sw349175 0.0 1013284
16:00−12ssw479486 0.1 1012369
19:00−15s4997100 0.1 1011180
22:00−15s41197100 0.1 1010269
8 march, mon
mon801:00−11s61494100 0.3 1005538
04:00−7ssw81594100 1.4 1002916
07:00−6sw91595100 1.7 1000922
10:00−8w5108683 2.4 1003544
13:00−6sw58760 0.0 1005524
16:00−6s5108117 0.0 1004520
19:00−4s81396100 1.3 999875
22:00−3wsw121693100 2.4 9971080